This demonstration page uses our WeatherBlox Daily Observations layout. Learn more.

Left ArrowRight Arrow

39.51506, -84.39828

Hourly Observations for December 2, 2021

Temp ( °F °C ) Dew Point ( °F °C ) Humidity (%) Winds ( mph kmh ) Pressure ( in mb ) Visibility ( mi km ) Precip ( " mm )
12:15 am 00:15 Cloudy 48 8.9 47 8.2 95 95 SW 9 15 29.92 1013 7 11 N/A
12:35 am 00:35 Cloudy with Mist and Fog 48 8.8 47 8.4 97 97 WSW 8 13 29.92 1013 7 11 N/A
12:55 am 00:55 Cloudy 49 9.2 47 8.5 95 95 WSW 10 17 29.92 1013 7 11 N/A
1:15 am 01:15 Cloudy 48 8.9 47 8.2 95 95 SW 10 17 29.91 1013 7 11 N/A
1:35 am 01:35 Mostly Cloudy 47 8.6 47 8.1 97 97 SSW 9 15 29.90 1013 7 11 N/A
1:55 am 01:55 Mostly Cloudy with Mist and Fog 46 8 46 7.7 98 98 SW 6 9 29.90 1013 5 8 N/A
2:15 am 02:15 Cloudy with Mist and Fog 48 8.7 47 8.4 98 98 SW 8 13 29.91 1013 7 11 N/A
2:35 am 02:35 Cloudy 48 8.9 47 8.3 96 96 SW 12 19 29.90 1013 7 11 N/A
2:55 am 02:55 Cloudy 49 9.3 47 8.6 95 95 SW 12 19 29.90 1013 7 11 N/A
3:15 am 03:15 Cloudy 49 9.4 48 8.7 95 95 SW 9 15 29.90 1013 7 11 N/A
3:35 am 03:35 Cloudy with Mist and Fog 49 9.3 47 8.6 95 95 SW 9 15 29.89 1012 7 11 N/A
3:55 am 03:55 Cloudy with Mist and Fog 49 9.5 48 8.9 96 96 SW 10 17 29.88 1012 7 11 N/A
4:15 am 04:15 Cloudy with Mist and Fog 49 9.2 48 8.7 97 97 WSW 8 13 29.88 1012 5 8 N/A
4:35 am 04:35 Cloudy with Mist and Fog 49 9.5 48 9 97 97 SW 9 15 29.88 1012 7 11 N/A
4:50 am 04:50 Cloudy with Mist and Fog 49 9.5 48 9 97 97 SW 10 17 29.87 1012 5 8 N/A
5:15 am 05:15 Partly Cloudy with Mist and Fog 49 9.3 48 8.9 97 97 SW 10 17 29.85 1011 5 8 N/A
5:35 am 05:35 Clear with Mist and Fog 49 9.3 48 8.8 97 97 SW 10 17 29.86 1011 5 8 N/A
5:55 am 05:55 Partly Cloudy with Mist and Fog 48 9 47 8.6 97 97 SW 10 17 29.85 1011 5 8 N/A
6:15 am 06:15 Clear with Mist and Fog 48 9.1 47 8.6 97 97 SW 12 19 29.85 1011 7 11 N/A
6:35 am 06:35 Clear with Mist and Fog 48 9.1 47 8.5 96 96 SW 10 17 29.85 1011 7 11 N/A
6:55 am 06:55 Clear with Mist and Fog 48 8.9 47 8.2 95 95 SW 12 19 29.86 1011 7 11 N/A
7:15 am 07:15 Clear with Mist and Fog 48 8.7 47 8.1 96 96 SW 9 15 29.86 1011 7 11 N/A
7:35 am 07:35 Clear with Mist and Fog 49 9.2 47 8.3 94 94 SW 14 22 29.85 1011 5 8 N/A
7:55 am 07:55 Sunny with Mist and Fog 48 9 47 8.2 95 95 WSW 14 22 29.86 1011 5 8 N/A
8:15 am 08:15 Sunny with Mist and Fog 49 9.2 47 8.2 94 94 SW 15 24 29.84 1011 7 11 N/A
8:35 am 08:35 Sunny 49 9.4 46 8 91 91 WSW 13 20 29.86 1011 7 11 N/A
8:55 am 08:55 Sunny 49 9.6 47 8.1 90 90 WSW 12 19 29.87 1012 7 11 N/A
9:15 am 09:15 Sunny 51 10.3 47 8.2 87 87 SW 14 22 29.86 1011 7 11 N/A
9:35 am 09:35 Mostly Cloudy 51 10.8 46 7.9 82 82 WSW 13 20 29.87 1011 10 16 N/A
9:55 am 09:55 Partly Cloudy 53 11.4 46 7.5 77 77 WSW 13 20 29.87 1011 10 16 N/A
10:15 am 10:15 Partly Cloudy 54 12.4 45 7.4 72 72 WSW 15 24 29.86 1011 10 16 N/A
10:35 am 10:35 Partly Cloudy 55 12.9 45 7.3 69 69 WSW 13 20 29.87 1012 10 16 N/A
10:55 am 10:55 Partly Cloudy 56 13.6 45 7.1 65 65 WSW 12 19 29.86 1011 10 16 N/A
11:15 am 11:15 Sunny 58 14.4 43 6 57 57 WSW 16 26 29.85 1011 10 16 N/A
11:35 am 11:35 Sunny 58 14.3 43 5.9 57 57 WSW 13 20 29.84 1010 10 16 N/A
11:55 am 11:55 Mostly Cloudy 59 15 43 5.9 55 55 WSW 15 24 29.83 1010 10 16 N/A
12:15 pm 12:15 Cloudy 59 14.8 42 5.5 54 54 W 13 20 29.84 1010 10 16 N/A
12:35 pm 12:35 Cloudy 58 14.7 42 5.8 55 55 W 13 20 29.84 1010 10 16 N/A
12:55 pm 12:55 Cloudy 59 14.8 43 5.9 55 55 W 14 22 29.83 1010 10 16 N/A
1:15 pm 13:15 Cloudy 59 15 43 5.9 55 55 WSW 10 17 29.83 1010 10 16 N/A
1:35 pm 13:35 Cloudy 59 15.2 42 5.8 54 54 W 10 17 29.82 1010 10 16 N/A
1:55 pm 13:55 Cloudy 59 15 42 5.6 54 54 W 13 20 29.83 1010 10 16 N/A
2:15 pm 14:15 Cloudy 59 15.2 42 5.8 54 54 W 12 19 29.83 1010 10 16 N/A
2:35 pm 14:35 Cloudy 60 15.3 42 5.4 52 52 WNW 15 24 29.83 1010 10 16 N/A
2:55 pm 14:55 Mostly Cloudy 59 15.1 42 5.5 53 53 W 9 15 29.83 1010 10 16 N/A
3:15 pm 15:15 Partly Cloudy 60 15.5 41 5.1 50 50 W 10 17 29.82 1010 10 16 N/A
3:35 pm 15:35 Mostly Cloudy 60 15.8 41 4.9 49 49 W 12 19 29.82 1010 10 16 N/A
3:55 pm 15:55 Partly Cloudy 61 16 41 5.1 49 49 W 14 22 29.83 1010 10 16 N/A
4:15 pm 16:15 Sunny 60 15.4 40 4.7 49 49 WNW 16 26 29.85 1011 10 16 N/A
4:35 pm 16:35 Sunny 59 14.8 41 4.8 51 51 WNW 13 20 29.87 1011 10 16 N/A
4:55 pm 16:55 Sunny 58 14.3 41 5 54 54 W 10 17 29.88 1012 10 16 N/A
5:15 pm 17:15 Clear 56 13.3 41 5.1 58 58 WNW 8 13 29.89 1012 10 16 N/A
5:35 pm 17:35 Clear 54 12.2 41 5.2 63 63 NW 8 13 29.91 1013 10 16 N/A
5:55 pm 17:55 Clear 54 12 41 5.1 63 63 WNW 7 11 29.92 1013 10 16 N/A
6:15 pm 18:15 Clear 54 12.1 41 5 62 62 WNW 10 17 29.93 1014 10 16 N/A
6:35 pm 18:35 Clear 53 11.6 40 4.7 63 63 WNW 7 11 29.94 1014 10 16 N/A
6:55 pm 18:55 Clear 52 11.3 40 4.5 63 63 WNW 10 17 29.96 1014 10 16 N/A
7:15 pm 19:15 Clear 52 11.1 40 4.3 63 63 WNW 9 15 29.97 1015 10 16 N/A
7:35 pm 19:35 Clear 51 10.5 39 4 64 64 WNW 7 11 29.97 1015 10 16 N/A
7:55 pm 19:55 Clear 50 10.1 39 4.1 67 67 WNW 7 11 29.97 1015 10 16 N/A
8:15 pm 20:15 Clear 49 9.5 39 3.8 68 68 W 6 9 29.99 1016 10 16 N/A
8:35 pm 20:35 Clear 46 8 38 3.5 74 74 WNW 3 6 30.00 1016 10 16 N/A
8:55 pm 20:55 Clear 45 7.4 38 3.6 77 77 WNW 3 6 30.03 1017 10 16 N/A
9:15 pm 21:15 Clear 40 4.5 38 3.4 93 93 NW 3 6 30.04 1017 10 16 N/A
9:35 pm 21:35 Clear 40 4.6 38 3.4 92 92 NNW 5 7 30.05 1018 10 16 N/A
9:55 pm 21:55 Clear 45 7.2 38 3.6 78 78 NNW 7 11 30.05 1017 10 16 N/A
10:15 pm 22:15 Clear 47 8.3 39 3.9 74 74 N 8 13 30.04 1017 10 16 N/A
10:35 pm 22:35 Clear 46 7.7 39 3.8 77 77 N 6 9 30.06 1018 10 16 N/A
10:55 pm 22:55 Clear 45 7.3 39 3.9 79 79 NNE 7 11 30.07 1018 10 16 N/A
11:15 pm 23:15 Clear 45 7.1 36 2.4 72 72 NNE 5 7 30.06 1018 10 16 N/A
11:35 pm 23:35 Clear 42 5.6 35 1.5 75 75 E 6 9 30.06 1018 10 16 N/A
11:55 pm 23:55 Clear 42 5.5 36 2.2 80 80 NNE 6 9 30.07 1018 10 16 N/A

Powered by AerisWeather